Tracking 30701 objects as of 15-Jun-2025
HD Live streaming from Space Station
objects crossing your sky now

COSMOS 1275 DEB

Track COSMOS 1275 DEB now!
10-day predictions


NORAD ID: 42184
Int'l Code: 1981-053SY
Perigee: 963.6 km
Apogee: 1,106.1 km
Inclination: 83.0 °
Period: 105.7 minutes
Semi major axis: 7405 km
RCS: Unknown
Launch date: June 4, 1981
Source: Commonwealth of Independent States (former USSR) (CIS)
Launch site: PLESETSK MISSILE AND SPACE COMPLEX (PKMTR)

Note: This is SATELLITE DEBRIS
Your satellite tracking list
Your tracking list is empty




NASA's NSSDC Master Catalog

Two Line Element Set (TLE):
1 42184U 81053SY  25165.10801093  .00000226  00000-0  26534-3 0  9990
2 42184  83.0219 211.7647 0096209  28.9828   0.2269 13.62193429561444
Source of the keplerian elements: AFSPC